| time (UTC) | temp F | wind direction | speed MPH | gust MPH | rain 1hr in | rain 24hr in | rain mn in | humidity % | barometer mb |
| 20260504194558 | 73 | 202 | 5.0 | 16.0 | 0.00 | 0.00 | 0.00 | 51 | 1003.4 |
| 20260504193101 | 74 | 162 | 5.0 | 13.0 | 0.00 | 0.00 | 0.00 | 51 | 1003.6 |
| 20260504191603 | 73 | 168 | 3.0 | 11.0 | 0.00 | 0.00 | 0.00 | 51 | 1003.8 |
| 20260504190057 | 73 | 139 | 4.0 | 16.0 | 0.00 | 0.00 | 0.00 | 52 | 1004.0 |
| 20260504184600 | 72 | 178 | 7.0 | 13.0 | 0.00 | 0.00 | 0.00 | 51 | 1004.3 |
| 20260504183105 | 73 | 227 | 5.0 | 15.0 | 0.00 | 0.00 | 0.00 | 47 | 1004.4 |
| 20260504181556 | 72 | 212 | 6.0 | 14.0 | 0.00 | 0.00 | 0.00 | 51 | 1004.3 |
| 20260504180056 | 72 | 212 | 4.0 | 15.0 | 0.00 | 0.00 | 0.00 | 50 | 1004.5 |
| 20260504174559 | 72 | 200 | 5.0 | 15.0 | 0.00 | 0.00 | 0.00 | 51 | 1004.9 |
| 20260504173059 | 72 | 236 | 4.0 | 12.0 | 0.00 | 0.00 | 0.00 | 50 | 1005.0 |
| 20260504171559 | 71 | 254 | 4.0 | 14.0 | 0.00 | 0.00 | 0.00 | 50 | 1005.3 |
| 20260504160107 | 68 | 226 | 4.0 | 13.0 | 0.00 | 0.00 | 0.00 | 56 | 1005.6 |
| 20260504100103 | 51 | 159 | 3.0 | 10.0 | 0.00 | 0.00 | 0.00 | 65 | 1006.7 |
| 20260504081556 | 53 | 190 | 4.0 | 13.0 | 0.00 | 0.00 | 0.00 | 61 | 1007.5 |
| 20260504044557 | 51 | 202 | 3.0 | 9.0 | 0.00 | 0.00 | 0.00 | 64 | 1010.0 |
| 20260504043058 | 52 | 253 | 3.0 | 10.0 | 0.00 | 0.00 | 0.00 | 63 | 1010.0 |
| 20260504041553 | 52 | 222 | 4.0 | 8.0 | 0.00 | 0.00 | 0.00 | 63 | 1010.2 |
| 20260504040100 | 52 | 211 | 3.0 | 9.0 | 0.00 | 0.00 | 0.00 | 62 | 1010.4 |
| 20260504034608 | 52 | 206 | 2.0 | 8.0 | 0.00 | 0.00 | 0.00 | 63 | 1010.5 |
| 20260504033102 | 52 | 248 | 3.0 | 6.0 | 0.00 | 0.00 | 0.00 | 63 | 1010.7 |
| 20260504031607 | 52 | 228 | 3.0 | 9.0 | 0.00 | 0.00 | 0.00 | 63 | 1010.9 |
| 20260504030111 | 52 | 236 | 1.0 | 6.0 | 0.00 | 0.00 | 0.00 | 64 | 1010.9 |
| 20260504024558 | 52 | 0 | 0.0 | 4.0 | 0.00 | 0.00 | 0.00 | 64 | 1011.0 |
| 20260504023059 | 52 | 152 | 1.0 | 5.0 | 0.00 | 0.00 | 0.00 | 63 | 1011.3 |
| 20260504021558 | 52 | 191 | 2.0 | 7.0 | 0.00 | 0.00 | 0.00 | 63 | 1011.3 |
| 20260504020128 | 52 | 139 | 1.0 | 8.0 | 0.00 | 0.00 | 0.00 | 62 | 1011.5 |
| 20260504014604 | 53 | 168 | 1.0 | 5.0 | 0.00 | 0.00 | 0.00 | 58 | 1011.4 |
| 20260504013116 | 54 | 245 | 4.0 | 15.0 | 0.00 | 0.00 | 0.00 | 53 | 1011.0 |
| 20260504011554 | 55 | 214 | 1.0 | 5.0 | 0.00 | 0.00 | 0.00 | 50 | 1010.7 |
| 20260504010057 | 55 | 226 | 2.0 | 6.0 | 0.00 | 0.00 | 0.00 | 50 | 1010.8 |
| 20260504004628 | 56 | 281 | 1.0 | 7.0 | 0.00 | 0.00 | 0.00 | 49 | 1010.6 |
| 20260504003100 | 56 | 229 | 1.0 | 5.0 | 0.00 | 0.00 | 0.00 | 48 | 1010.6 |
| 20260504001621 | 57 | 0 | 2.0 | 10.0 | 0.00 | 0.00 | 0.00 | 46 | 1010.5 |
| 20260504000105 | 58 | 195 | 2.0 | 9.0 | 0.00 | 0.00 | 0.00 | 44 | 1010.7 |
| 20260503234605 | 60 | 145 | 2.0 | 12.0 | 0.00 | 0.00 | 0.00 | 43 | 1010.6 |
| 20260503233101 | 60 | 230 | 4.0 | 15.0 | 0.00 | 0.00 | 0.00 | 42 | 1010.7 |
| 20260503231555 | 61 | 242 | 3.0 | 12.0 | 0.00 | 0.00 | 0.00 | 44 | 1010.7 |
| 20260503230115 | 61 | 218 | 3.0 | 7.0 | 0.00 | 0.00 | 0.00 | 44 | 1010.7 |
| 20260503224604 | 60 | 222 | 1.0 | 10.0 | 0.00 | 0.00 | 0.00 | 45 | 1010.9 |
| 20260503223057 | 60 | 352 | 3.0 | 11.0 | 0.00 | 0.00 | 0.00 | 44 | 1011.0 |
| 20260503221602 | 61 | 242 | 3.0 | 12.0 | 0.00 | 0.00 | 0.00 | 44 | 1011.0 |
| 20260503220058 | 62 | 219 | 4.0 | 14.0 | 0.00 | 0.00 | 0.00 | 42 | 1010.9 |
| 20260503214600 | 61 | 203 | 4.0 | 13.0 | 0.00 | 0.00 | 0.00 | 45 | 1011.0 |
| 20260503213057 | 60 | 121 | 2.0 | 14.0 | 0.00 | 0.00 | 0.00 | 45 | 1011.1 |
| 20260503211558 | 61 | 228 | 2.0 | 8.0 | 0.00 | 0.00 | 0.00 | 44 | 1011.1 |
| 20260503210055 | 62 | 223 | 4.0 | 16.0 | 0.00 | 0.00 | 0.00 | 42 | 1011.1 |
| 20260503204557 | 61 | 198 | 4.0 | 14.0 | 0.00 | 0.00 | 0.00 | 42 | 1011.0 |
| 20260503203113 | 63 | 297 | 4.0 | 12.0 | 0.00 | 0.00 | 0.00 | 40 | 1011.2 |
| 20260503201556 | 63 | 198 | 2.0 | 10.0 | 0.00 | 0.00 | 0.00 | 42 | 1011.1 |
| 20260503200105 | 62 | 184 | 3.0 | 11.0 | 0.00 | 0.00 | 0.00 | 42 | 1011.4 |